User: anonymous   Login
Location: Andrest
(43.3200°N, 0.0641°E)
Time: 04:44:49
(UTC+00:00)
Language:

APRIZESAT 7 - Orbit

View from above orbital plane
View from above orbital plane
View from above satellite
View from above satellite

Ground track
Ground track

The orbit data is extracted from the following two-line orbital elements,

1 39416U 13066A   21165.45278110  .00000080  00000-0  15440-4 0  9998
2 39416  97.5371 160.0079 0042289 129.3675 231.1299 14.84079792409458
Epoch (UTC): 14 June 2021 10:52:00
Eccentricity: 0.0042289
inclination: 97.5371°
perigee height: 587 km
apogee height: 646 km
right ascension of ascending node: 160.0079°
argument of perigee: 129.3675°
revolutions per day: 14.84079792
mean anomaly at epoch: 231.1299°
orbit number at epoch: 40945

The dashed part of the orbit path shows where the satellite is in the earth's shadow,  

DLR